Time,TemperatureF,DewpointF,PressureIn,WindDirection,WindDirectionDegrees,WindSpeedMPH,WindSpeedGustMPH,Humidity,HourlyPrecipIn,Conditions,Clouds,dailyrainin,SoftwareType,DateUTC
2013-02-12 00:02:00,28.9,20.0,29.79,NW,316,0.0,0.0,71,0.00,,,0.00,TxWx,2013-02-12 06:02:00,
2013-02-12 00:07:00,28.9,20.0,29.79,SE,136,0.0,0.0,71,0.00,,,0.00,TxWx,2013-02-12 06:07:00,
2013-02-12 00:12:00,28.9,19.0,29.79,NW,320,0.0,0.0,70,0.00,,,0.00,TxWx,2013-02-12 06:12:00,
2013-02-12 00:17:00,28.9,20.0,29.79,NW,316,0.0,0.0,71,0.00,,,0.00,TxWx,2013-02-12 06:17:00,
2013-02-12 00:23:00,28.8,20.0,29.79,East,91,0.0,0.0,71,0.00,,,0.00,TxWx,2013-02-12 06:23:00,
2013-02-12 00:28:00,28.7,20.0,29.80,ENE,63,0.0,0.0,71,0.00,,,0.00,TxWx,2013-02-12 06:28:00,
2013-02-12 00:33:00,28.7,20.0,29.80,NW,314,0.0,0.0,71,0.00,,,0.00,TxWx,2013-02-12 06:33:00,
2013-02-12 00:38:00,28.7,20.0,29.80,NW,316,0.0,0.0,71,0.00,,,0.00,TxWx,2013-02-12 06:38:00,
2013-02-12 00:43:00,28.7,20.0,29.80,NW,319,0.0,0.0,71,0.00,,,0.00,TxWx,2013-02-12 06:43:00,
2013-02-12 00:48:00,28.7,20.0,29.80,NW,315,0.0,0.0,71,0.00,,,0.00,TxWx,2013-02-12 06:48:00,
2013-02-12 00:54:00,28.7,20.0,29.81,NW,325,0.0,0.0,71,0.00,,,0.00,TxWx,2013-02-12 06:54:00,
2013-02-12 00:59:00,28.6,20.0,29.81,NW,314,0.0,0.0,71,0.00,,,0.00,TxWx,2013-02-12 06:59:00,
2013-02-12 01:04:00,28.5,20.0,29.81,NW,315,0.0,0.0,71,0.00,,,0.00,TxWx,2013-02-12 07:04:00,
2013-02-12 01:09:00,28.5,19.0,29.81,North,8,0.0,0.0,72,0.00,,,0.00,TxWx,2013-02-12 07:09:00,
2013-02-12 01:14:00,28.5,19.0,29.81,NW,318,0.0,0.0,72,0.00,,,0.00,TxWx,2013-02-12 07:14:00,
2013-02-12 01:19:00,28.5,19.0,29.81,NW,315,0.0,0.0,72,0.00,,,0.00,TxWx,2013-02-12 07:19:00,
2013-02-12 01:24:00,28.5,19.0,29.81,NW,315,0.0,0.0,72,0.00,,,0.00,TxWx,2013-02-12 07:24:00,
2013-02-12 01:29:00,28.4,19.0,29.81,NW,322,0.0,0.0,73,0.00,,,0.00,TxWx,2013-02-12 07:29:00,
2013-02-12 01:35:00,28.5,19.0,29.82,NW,323,0.0,0.0,73,0.00,,,0.00,TxWx,2013-02-12 07:35:00,
2013-02-12 01:40:00,28.5,19.0,29.82,NW,314,0.0,0.0,73,0.00,,,0.00,TxWx,2013-02-12 07:40:00,
2013-02-12 01:45:00,28.5,21.0,29.82,North,0,0.0,0.0,74,0.00,,,0.00,TxWx,2013-02-12 07:45:00,
2013-02-12 01:50:00,28.5,21.0,29.82,NW,314,0.0,0.0,74,0.00,,,0.00,TxWx,2013-02-12 07:50:00,
2013-02-12 01:55:00,28.5,21.0,29.82,NW,315,0.0,0.0,74,0.00,,,0.00,TxWx,2013-02-12 07:55:00,
2013-02-12 02:00:00,28.4,19.0,29.82,NW,314,0.0,0.0,73,0.00,,,0.00,TxWx,2013-02-12 08:00:00,
2013-02-12 02:06:00,28.4,19.0,29.82,North,0,0.0,0.0,73,0.00,,,0.00,TxWx,2013-02-12 08:06:00,
2013-02-12 02:11:00,28.3,20.0,29.83,North,359,0.0,0.0,74,0.00,,,0.00,TxWx,2013-02-12 08:11:00,
2013-02-12 02:16:00,28.4,20.0,29.83,NW,320,0.0,0.0,74,0.00,,,0.00,TxWx,2013-02-12 08:16:00,
2013-02-12 02:21:00,28.4,20.0,29.83,NW,314,0.0,0.0,74,0.00,,,0.00,TxWx,2013-02-12 08:21:00,
2013-02-12 02:27:00,28.3,20.0,29.83,North,357,0.0,0.0,74,0.00,,,0.00,TxWx,2013-02-12 08:27:00,
2013-02-12 02:32:00,28.2,19.0,29.83,NW,316,0.0,0.0,73,0.00,,,0.00,TxWx,2013-02-12 08:32:00,
2013-02-12 02:37:00,28.1,19.0,29.83,NW,316,0.0,0.0,73,0.00,,,0.00,TxWx,2013-02-12 08:37:00,
2013-02-12 02:42:00,28.1,19.0,29.83,NNW,329,0.0,0.0,73,0.00,,,0.00,TxWx,2013-02-12 08:42:00,
2013-02-12 02:47:00,28.1,19.0,29.83,NW,318,0.0,0.0,73,0.00,,,0.00,TxWx,2013-02-12 08:47:00,
2013-02-12 02:53:00,28.1,20.0,29.84,NW,315,0.0,0.0,74,0.00,,,0.00,TxWx,2013-02-12 08:53:00,
2013-02-12 02:58:00,28.0,20.0,29.84,NW,313,0.0,0.0,74,0.00,,,0.00,TxWx,2013-02-12 08:58:00,
2013-02-12 03:03:00,28.0,20.0,29.83,NW,316,0.0,0.0,74,0.00,,,0.00,TxWx,2013-02-12 09:03:00,
2013-02-12 03:09:00,28.0,20.0,29.84,NW,317,0.0,0.0,75,0.00,,,0.00,TxWx,2013-02-12 09:09:00,
2013-02-12 03:14:00,28.1,20.0,29.84,NW,320,0.0,0.0,75,0.00,,,0.00,TxWx,2013-02-12 09:14:00,
2013-02-12 03:19:00,28.0,20.0,29.83,ESE,119,0.0,0.0,75,0.00,,,0.00,TxWx,2013-02-12 09:19:00,
2013-02-12 03:24:00,28.0,20.0,29.84,NW,314,0.0,0.0,75,0.00,,,0.00,TxWx,2013-02-12 09:24:00,
2013-02-12 03:29:00,28.0,20.0,29.84,North,2,0.0,0.0,75,0.00,,,0.00,TxWx,2013-02-12 09:29:00,
2013-02-12 03:34:00,28.0,20.0,29.84,NW,319,0.0,0.0,75,0.00,,,0.00,TxWx,2013-02-12 09:34:00,
2013-02-12 03:40:00,27.9,20.0,29.84,NW,313,0.0,0.0,75,0.00,,,0.00,TxWx,2013-02-12 09:40:00,
2013-02-12 03:45:00,27.9,20.0,29.84,NW,316,0.0,0.0,75,0.00,,,0.00,TxWx,2013-02-12 09:45:00,
2013-02-12 03:50:00,27.8,20.0,29.85,North,356,0.0,0.0,75,0.00,,,0.00,TxWx,2013-02-12 09:50:00,
2013-02-12 03:55:00,27.8,20.0,29.85,ENE,74,0.0,0.0,76,0.00,,,0.00,TxWx,2013-02-12 09:55:00,
2013-02-12 04:00:00,27.6,20.0,29.85,NW,316,0.0,0.0,76,0.00,,,0.00,TxWx,2013-02-12 10:00:00,
2013-02-12 04:05:00,27.5,20.0,29.85,North,0,0.0,0.0,76,0.00,,,0.00,TxWx,2013-02-12 10:05:00,
2013-02-12 04:10:00,27.4,19.0,29.85,NW,313,0.0,0.0,76,0.00,,,0.00,TxWx,2013-02-12 10:10:00,
2013-02-12 04:15:00,27.4,19.0,29.85,North,2,0.0,0.0,76,0.00,,,0.00,TxWx,2013-02-12 10:15:00,
2013-02-12 04:21:00,27.3,19.0,29.86,NW,317,0.0,0.0,76,0.00,,,0.00,TxWx,2013-02-12 10:21:00,
2013-02-12 04:26:00,27.3,19.0,29.85,NNE,14,0.0,0.0,76,0.00,,,0.00,TxWx,2013-02-12 10:26:00,
2013-02-12 04:31:00,27.3,20.0,29.85,NW,315,0.0,0.0,77,0.00,,,0.00,TxWx,2013-02-12 10:31:00,
2013-02-12 04:36:00,27.3,20.0,29.85,East,96,0.0,0.0,77,0.00,,,0.00,TxWx,2013-02-12 10:36:00,
2013-02-12 04:41:00,27.3,20.0,29.85,NW,314,0.0,0.0,77,0.00,,,0.00,TxWx,2013-02-12 10:41:00,
2013-02-12 04:46:00,27.3,20.0,29.85,North,1,0.0,0.0,77,0.00,,,0.00,TxWx,2013-02-12 10:46:00,
2013-02-12 04:51:00,27.3,20.0,29.86,NW,322,0.0,0.0,77,0.00,,,0.00,TxWx,2013-02-12 10:51:00,
2013-02-12 04:56:00,27.0,20.0,29.86,North,6,0.0,0.0,77,0.00,,,0.00,TxWx,2013-02-12 10:56:00,
2013-02-12 05:02:00,26.9,20.0,29.86,NW,318,0.0,0.0,78,0.00,,,0.00,TxWx,2013-02-12 11:02:00,
2013-02-12 05:07:00,26.9,20.0,29.86,NW,319,0.0,0.0,78,0.00,,,0.00,TxWx,2013-02-12 11:07:00,
2013-02-12 05:12:00,26.8,20.0,29.85,NW,318,0.0,0.0,78,0.00,,,0.00,TxWx,2013-02-12 11:12:00,
2013-02-12 05:18:00,26.7,20.0,29.85,NW,320,0.0,0.0,78,0.00,,,0.00,TxWx,2013-02-12 11:18:00,
2013-02-12 05:23:00,26.5,20.0,29.85,NW,319,0.0,0.0,77,0.00,,,0.00,TxWx,2013-02-12 11:23:00,
2013-02-12 05:28:00,26.3,19.0,29.86,NNW,331,0.0,0.0,77,0.00,,,0.00,TxWx,2013-02-12 11:28:00,
2013-02-12 05:33:00,26.2,18.0,29.86,NW,315,0.0,0.0,76,0.00,,,0.00,TxWx,2013-02-12 11:33:00,
2013-02-12 05:38:00,25.8,18.0,29.86,NW,322,0.0,0.0,75,0.00,,,0.00,TxWx,2013-02-12 11:38:00,
2013-02-12 05:43:00,25.5,18.0,29.86,North,358,0.0,0.0,76,0.00,,,0.00,TxWx,2013-02-12 11:43:00,
2013-02-12 05:49:00,25.4,17.0,29.85,NW,317,0.0,0.0,75,0.00,,,0.00,TxWx,2013-02-12 11:49:00,
2013-02-12 05:54:00,25.3,17.0,29.85,NW,317,0.0,0.0,76,0.00,,,0.00,TxWx,2013-02-12 11:54:00,
2013-02-12 05:59:00,25.2,17.0,29.85,NW,316,0.0,0.0,75,0.00,,,0.00,TxWx,2013-02-12 11:59:00,
2013-02-12 06:04:00,25.2,18.0,29.85,North,1,0.0,0.0,76,0.00,,,0.00,TxWx,2013-02-12 12:04:00,
2013-02-12 06:10:00,25.0,17.0,29.85,NW,314,0.0,0.0,76,0.00,,,0.00,TxWx,2013-02-12 12:10:00,
2013-02-12 06:15:00,25.0,17.0,29.85,ENE,59,0.0,0.0,76,0.00,,,0.00,TxWx,2013-02-12 12:15:00,
2013-02-12 06:20:00,25.0,17.0,29.84,NW,317,0.0,0.0,76,0.00,,,0.00,TxWx,2013-02-12 12:20:00,
2013-02-12 06:25:00,25.0,17.0,29.84,NW,323,0.0,0.0,76,0.00,,,0.00,TxWx,2013-02-12 12:25:00,
2013-02-12 06:30:00,25.0,17.0,29.84,NW,316,0.0,0.0,76,0.00,,,0.00,TxWx,2013-02-12 12:30:00,
2013-02-12 06:35:00,24.9,17.0,29.84,NW,314,0.0,0.0,76,0.00,,,0.00,TxWx,2013-02-12 12:35:00,
2013-02-12 06:40:00,24.9,18.0,29.84,NW,313,0.0,0.0,76,0.00,,,0.00,TxWx,2013-02-12 12:40:00,
2013-02-12 06:46:00,25.0,18.0,29.84,NW,314,0.0,0.0,76,0.00,,,0.00,TxWx,2013-02-12 12:46:00,
2013-02-12 06:51:00,25.1,17.0,29.85,NW,315,0.0,0.0,76,0.00,,,0.00,TxWx,2013-02-12 12:51:00,
2013-02-12 06:56:00,25.1,18.0,29.85,NW,320,0.0,0.0,76,0.00,,,0.00,TxWx,2013-02-12 12:56:00,
2013-02-12 07:01:00,25.0,17.0,29.85,NW,316,0.0,0.0,76,0.00,,,0.00,TxWx,2013-02-12 13:01:00,
2013-02-12 07:06:00,25.1,18.0,29.85,NW,322,0.0,0.0,76,0.00,,,0.00,TxWx,2013-02-12 13:06:00,
2013-02-12 07:11:00,24.9,17.0,29.86,NW,316,0.0,0.0,76,0.00,,,0.00,TxWx,2013-02-12 13:11:00,
2013-02-12 07:17:00,24.9,18.0,29.86,NW,318,0.0,0.0,76,0.00,,,0.00,TxWx,2013-02-12 13:17:00,
2013-02-12 07:22:00,24.9,18.0,29.85,NW,321,0.0,0.0,76,0.00,,,0.00,TxWx,2013-02-12 13:22:00,
2013-02-12 07:27:00,24.9,18.0,29.85,NW,314,0.0,0.0,76,0.00,,,0.00,TxWx,2013-02-12 13:27:00,
2013-02-12 07:32:00,25.0,18.0,29.85,NW,321,0.0,0.0,77,0.00,,,0.00,TxWx,2013-02-12 13:32:00,
2013-02-12 07:37:00,24.7,18.0,29.85,North,351,0.0,0.0,76,0.00,,,0.00,TxWx,2013-02-12 13:37:00,
2013-02-12 07:42:00,25.0,18.0,29.86,North,353,0.0,0.0,76,0.00,,,0.00,TxWx,2013-02-12 13:42:00,
2013-02-12 07:47:00,24.9,18.0,29.86,NW,314,0.0,0.0,76,0.00,,,0.00,TxWx,2013-02-12 13:47:00,
2013-02-12 07:52:00,25.3,18.0,29.87,NW,317,0.0,0.0,76,0.00,,,0.00,TxWx,2013-02-12 13:52:00,
2013-02-12 07:57:00,24.9,17.0,29.87,North,352,0.0,0.0,76,0.00,,,0.00,TxWx,2013-02-12 13:57:00,
2013-02-12 08:03:00,24.9,18.0,29.86,North,350,0.0,0.0,76,0.00,,,0.00,TxWx,2013-02-12 14:03:00,
2013-02-12 08:08:00,24.9,17.0,29.86,North,351,0.0,0.0,76,0.00,,,0.00,TxWx,2013-02-12 14:08:00,
2013-02-12 08:13:00,24.9,17.0,29.86,North,350,0.0,0.0,76,0.00,,,0.00,TxWx,2013-02-12 14:13:00,
2013-02-12 08:18:00,24.7,17.0,29.85,East,93,0.0,0.0,75,0.00,,,0.00,TxWx,2013-02-12 14:18:00,
2013-02-12 08:24:00,25.1,17.0,29.86,North,351,0.0,0.0,76,0.00,,,0.00,TxWx,2013-02-12 14:24:00,
2013-02-12 08:29:00,25.0,17.0,29.87,North,349,0.0,0.0,75,0.00,,,0.00,TxWx,2013-02-12 14:29:00,
2013-02-12 08:34:00,25.2,17.0,29.87,North,5,0.0,0.0,75,0.00,,,0.00,TxWx,2013-02-12 14:34:00,
2013-02-12 08:39:00,25.0,17.0,29.86,North,353,0.0,0.0,75,0.00,,,0.00,TxWx,2013-02-12 14:39:00,
2013-02-12 08:44:00,24.8,17.0,29.86,North,352,0.0,0.0,75,0.00,,,0.00,TxWx,2013-02-12 14:44:00,
2013-02-12 08:49:00,25.0,17.0,29.86,North,357,0.0,0.0,75,0.00,,,0.00,TxWx,2013-02-12 14:49:00,
2013-02-12 08:54:00,25.0,17.0,29.86,NW,313,0.0,0.0,75,0.00,,,0.00,TxWx,2013-02-12 14:54:00,
2013-02-12 09:00:00,25.1,17.0,29.86,North,352,0.0,0.0,75,0.00,,,0.00,TxWx,2013-02-12 15:00:00,
2013-02-12 09:05:00,25.3,17.0,29.86,North,351,0.0,0.0,75,0.00,,,0.00,TxWx,2013-02-12 15:05:00,
2013-02-12 09:10:00,25.8,18.0,29.86,NW,315,0.0,0.0,75,0.00,,,0.00,TxWx,2013-02-12 15:10:00,
2013-02-12 09:15:00,25.6,18.0,29.86,NW,315,0.0,0.0,74,0.00,,,0.00,TxWx,2013-02-12 15:15:00,
2013-02-12 09:21:00,25.5,17.0,29.87,East,92,0.0,0.0,75,0.00,,,0.00,TxWx,2013-02-12 15:21:00,
2013-02-12 09:26:00,25.8,18.0,29.85,NW,320,0.0,0.0,75,0.00,,,0.00,TxWx,2013-02-12 15:26:00,
2013-02-12 09:31:00,25.6,18.0,29.84,North,352,0.0,0.0,74,0.00,,,0.00,TxWx,2013-02-12 15:31:00,
2013-02-12 09:36:00,25.6,18.0,29.85,NW,313,0.0,0.0,75,0.00,,,0.00,TxWx,2013-02-12 15:36:00,
2013-02-12 09:41:00,25.8,18.0,29.85,NW,316,0.0,0.0,75,0.00,,,0.00,TxWx,2013-02-12 15:41:00,
2013-02-12 09:47:00,25.6,18.0,29.85,NW,314,0.0,0.0,75,0.00,,,0.00,TxWx,2013-02-12 15:47:00,
2013-02-12 09:52:00,26.0,18.0,29.85,North,352,0.0,0.0,75,0.00,,,0.00,TxWx,2013-02-12 15:52:00,
2013-02-12 09:57:00,25.8,18.0,29.86,North,351,0.0,0.0,75,0.00,,,0.00,TxWx,2013-02-12 15:57:00,
2013-02-12 10:02:00,26.1,18.0,29.86,NNW,348,0.0,0.0,75,0.00,,,0.00,TxWx,2013-02-12 16:02:00,
2013-02-12 10:07:00,26.6,19.0,29.86,NNW,347,0.0,0.0,75,0.00,,,0.00,TxWx,2013-02-12 16:07:00,
2013-02-12 10:13:00,26.6,19.0,29.87,North,350,0.0,0.0,74,0.00,,,0.00,TxWx,2013-02-12 16:13:00,
2013-02-12 10:18:00,26.7,19.0,29.86,North,351,0.0,0.0,74,0.00,,,0.00,TxWx,2013-02-12 16:18:00,
2013-02-12 10:23:00,27.0,19.0,29.87,North,352,0.0,0.0,74,0.00,,,0.00,TxWx,2013-02-12 16:23:00,
2013-02-12 10:28:00,27.2,19.0,29.87,North,353,0.0,0.0,74,0.00,,,0.00,TxWx,2013-02-12 16:28:00,
2013-02-12 10:34:00,27.0,19.0,29.86,North,352,0.0,0.0,74,0.00,,,0.00,TxWx,2013-02-12 16:34:00,
2013-02-12 10:39:00,27.4,19.0,29.86,North,350,0.0,0.0,74,0.00,,,0.00,TxWx,2013-02-12 16:39:00,
2013-02-12 10:44:00,27.3,19.0,29.86,North,353,0.0,0.0,74,0.00,,,0.00,TxWx,2013-02-12 16:44:00,
2013-02-12 10:49:00,27.9,20.0,29.86,North,354,0.0,0.0,74,0.00,,,0.00,TxWx,2013-02-12 16:49:00,
2013-02-12 10:54:00,27.8,20.0,29.86,NW,313,0.0,0.0,74,0.00,,,0.00,TxWx,2013-02-12 16:54:00,
2013-02-12 11:00:00,27.9,20.0,29.86,North,353,0.0,0.0,74,0.00,,,0.00,TxWx,2013-02-12 17:00:00,
2013-02-12 11:05:00,27.7,20.0,29.86,North,353,0.0,0.0,74,0.00,,,0.00,TxWx,2013-02-12 17:05:00,
2013-02-12 11:10:00,27.2,18.0,29.85,North,354,0.0,0.0,73,0.00,,,0.00,TxWx,2013-02-12 17:10:00,
2013-02-12 11:15:00,27.8,20.0,29.85,North,353,0.0,0.0,74,0.00,,,0.00,TxWx,2013-02-12 17:15:00,
2013-02-12 11:20:00,27.9,20.0,29.84,NW,314,0.0,0.0,74,0.00,,,0.00,TxWx,2013-02-12 17:20:00,
2013-02-12 11:25:00,28.2,19.0,29.83,NW,318,0.0,0.0,73,0.00,,,0.00,TxWx,2013-02-12 17:25:00,
2013-02-12 11:31:00,28.2,19.0,29.83,NW,320,0.0,0.0,72,0.00,,,0.00,TxWx,2013-02-12 17:31:00,
2013-02-12 11:36:00,28.5,19.0,29.82,NW,319,0.0,0.0,72,0.00,,,0.00,TxWx,2013-02-12 17:36:00,
2013-02-12 11:41:00,28.4,19.0,29.81,NW,314,0.0,0.0,71,0.00,,,0.00,TxWx,2013-02-12 17:41:00,
2013-02-12 11:46:00,29.4,19.0,29.81,NW,315,0.0,0.0,70,0.00,,,0.00,TxWx,2013-02-12 17:46:00,
2013-02-12 11:51:00,29.8,20.0,29.80,NW,323,0.0,0.0,68,0.00,,,0.00,TxWx,2013-02-12 17:51:00,
2013-02-12 11:56:00,29.8,19.0,29.80,NW,319,0.0,0.0,67,0.00,,,0.00,TxWx,2013-02-12 17:56:00,
2013-02-12 12:02:00,29.1,19.0,29.79,NW,323,0.0,0.0,68,0.00,,,0.00,TxWx,2013-02-12 18:02:00,
2013-02-12 12:07:00,28.9,19.0,29.79,NW,317,0.0,0.0,68,0.00,,,0.00,TxWx,2013-02-12 18:07:00,
2013-02-12 12:12:00,29.4,19.0,29.78,East,88,0.0,0.0,68,0.00,,,0.00,TxWx,2013-02-12 18:12:00,
2013-02-12 12:17:00,30.0,20.0,29.78,NNW,329,0.0,0.0,68,0.00,,,0.00,TxWx,2013-02-12 18:17:00,
2013-02-12 12:22:00,30.5,20.0,29.78,NW,323,0.0,0.0,68,0.00,,,0.00,TxWx,2013-02-12 18:22:00,
2013-02-12 12:28:00,29.6,20.0,29.79,NW,314,0.0,0.0,69,0.00,,,0.00,TxWx,2013-02-12 18:28:00,
2013-02-12 12:33:00,30.0,20.0,29.79,North,354,0.0,0.0,69,0.00,,,0.00,TxWx,2013-02-12 18:33:00,
2013-02-12 12:38:00,29.8,20.0,29.79,ENE,62,0.0,0.0,69,0.00,,,0.00,TxWx,2013-02-12 18:38:00,
2013-02-12 12:43:00,29.3,19.0,29.79,North,352,0.0,0.0,69,0.00,,,0.00,TxWx,2013-02-12 18:43:00,
2013-02-12 12:49:00,29.9,20.0,29.79,North,350,0.0,0.0,69,0.00,,,0.00,TxWx,2013-02-12 18:49:00,
2013-02-12 12:54:00,29.7,20.0,29.79,North,353,0.0,0.0,69,0.00,,,0.00,TxWx,2013-02-12 18:54:00,
2013-02-12 12:59:00,29.1,19.0,29.78,North,355,0.0,0.0,70,0.00,,,0.00,TxWx,2013-02-12 18:59:00,
2013-02-12 13:04:00,29.1,19.0,29.78,North,354,0.0,0.0,70,0.00,,,0.00,TxWx,2013-02-12 19:04:00,
2013-02-12 13:09:00,29.4,19.0,29.78,North,353,0.0,0.0,69,0.00,,,0.00,TxWx,2013-02-12 19:09:00,
2013-02-12 13:14:00,29.7,21.0,29.78,NW,318,0.0,0.0,71,0.00,,,0.00,TxWx,2013-02-12 19:14:00,
2013-02-12 13:19:00,29.5,19.0,29.78,North,352,0.0,0.0,70,0.00,,,0.00,TxWx,2013-02-12 19:19:00,
2013-02-12 13:24:00,29.5,19.0,29.77,NW,315,0.0,0.0,70,0.00,,,0.00,TxWx,2013-02-12 19:24:00,
2013-02-12 13:30:00,29.7,20.0,29.78,North,355,0.0,0.0,70,0.00,,,0.00,TxWx,2013-02-12 19:30:00,
2013-02-12 13:35:00,29.5,20.0,29.78,NW,314,0.0,0.0,70,0.00,,,0.00,TxWx,2013-02-12 19:35:00,
2013-02-12 13:40:00,29.4,20.0,29.78,NW,318,0.0,0.0,71,0.00,,,0.00,TxWx,2013-02-12 19:40:00,
2013-02-12 13:45:00,29.4,20.0,29.78,NW,319,0.0,0.0,72,0.00,,,0.00,TxWx,2013-02-12 19:45:00,
2013-02-12 13:50:00,29.3,20.0,29.79,NW,319,0.0,0.0,72,0.00,,,0.00,TxWx,2013-02-12 19:50:00,
2013-02-12 13:55:00,29.1,20.0,29.79,North,353,0.0,0.0,72,0.00,,,0.00,TxWx,2013-02-12 19:55:00,
2013-02-12 14:00:00,29.0,20.0,29.80,NW,314,0.0,0.0,72,0.00,,,0.00,TxWx,2013-02-12 20:00:00,
2013-02-12 14:05:00,29.2,20.0,29.79,North,353,0.0,0.0,72,0.00,,,0.00,TxWx,2013-02-12 20:05:00,
2013-02-12 14:10:00,28.5,20.0,29.79,North,5,0.0,0.0,72,0.00,,,0.00,TxWx,2013-02-12 20:10:00,
2013-02-12 14:16:00,28.8,20.0,29.79,North,353,0.0,0.0,72,0.00,,,0.00,TxWx,2013-02-12 20:16:00,
2013-02-12 14:21:00,28.7,20.0,29.80,North,353,0.0,0.0,72,0.00,,,0.00,TxWx,2013-02-12 20:21:00,
2013-02-12 14:26:00,28.8,20.0,29.80,East,91,0.0,0.0,72,0.00,,,0.00,TxWx,2013-02-12 20:26:00,
2013-02-12 14:31:00,29.2,20.0,29.79,North,353,0.0,0.0,72,0.00,,,0.00,TxWx,2013-02-12 20:31:00,
2013-02-12 14:36:00,29.4,20.0,29.79,North,351,0.0,0.0,71,0.00,,,0.00,TxWx,2013-02-12 20:36:00,
2013-02-12 14:41:00,29.1,20.0,29.79,North,353,0.0,0.0,72,0.00,,,0.00,TxWx,2013-02-12 20:41:00,
2013-02-12 14:46:00,29.3,20.0,29.79,North,350,0.0,0.0,72,0.00,,,0.00,TxWx,2013-02-12 20:46:00,
2013-02-12 14:52:00,29.4,20.0,29.78,North,352,0.0,0.0,73,0.00,,,0.00,TxWx,2013-02-12 20:52:00,
2013-02-12 14:57:00,28.8,20.0,29.78,North,354,0.0,0.0,72,0.00,,,0.00,TxWx,2013-02-12 20:57:00,
2013-02-12 15:02:00,29.0,20.0,29.79,North,352,0.0,0.0,72,0.00,,,0.00,TxWx,2013-02-12 21:02:00,
2013-02-12 15:07:00,28.7,20.0,29.78,North,352,0.0,0.0,72,0.00,,,0.00,TxWx,2013-02-12 21:07:00,
2013-02-12 15:12:00,28.8,20.0,29.78,North,352,0.0,0.0,72,0.00,,,0.00,TxWx,2013-02-12 21:12:00,
2013-02-12 15:18:00,29.2,20.0,29.78,North,350,0.0,0.0,73,0.00,,,0.00,TxWx,2013-02-12 21:18:00,
2013-02-12 15:23:00,29.0,20.0,29.78,North,352,0.0,0.0,73,0.00,,,0.00,TxWx,2013-02-12 21:23:00,
2013-02-12 15:28:00,29.0,20.0,29.78,NW,313,0.0,0.0,72,0.00,,,0.00,TxWx,2013-02-12 21:28:00,
2013-02-12 15:33:00,29.0,20.0,29.78,North,352,0.0,0.0,72,0.00,,,0.00,TxWx,2013-02-12 21:33:00,
2013-02-12 15:38:00,28.9,20.0,29.78,North,352,0.0,0.0,72,0.00,,,0.00,TxWx,2013-02-12 21:38:00,
2013-02-12 15:44:00,28.7,20.0,29.77,North,349,0.0,0.0,72,0.00,,,0.00,TxWx,2013-02-12 21:44:00,
2013-02-12 15:49:00,28.7,20.0,29.78,NNW,348,0.0,0.0,72,0.00,,,0.00,TxWx,2013-02-12 21:49:00,
2013-02-12 15:54:00,28.7,20.0,29.78,North,354,0.0,0.0,72,0.00,,,0.00,TxWx,2013-02-12 21:54:00,
2013-02-12 15:59:00,28.7,20.0,29.78,North,353,0.0,0.0,73,0.00,,,0.00,TxWx,2013-02-12 21:59:00,
2013-02-12 16:04:00,28.6,20.0,29.78,North,352,0.0,0.0,73,0.00,,,0.00,TxWx,2013-02-12 22:04:00,
2013-02-12 16:10:00,28.8,21.0,29.78,East,96,0.0,0.0,74,0.00,,,0.00,TxWx,2013-02-12 22:10:00,
2013-02-12 16:15:00,28.7,20.0,29.77,North,352,0.0,0.0,73,0.00,,,0.00,TxWx,2013-02-12 22:15:00,
2013-02-12 16:20:00,28.7,20.0,29.78,NW,324,0.0,0.0,73,0.00,,,0.00,TxWx,2013-02-12 22:20:00,
2013-02-12 16:25:00,28.8,21.0,29.77,NW,314,0.0,0.0,74,0.00,,,0.00,TxWx,2013-02-12 22:25:00,
2013-02-12 16:31:00,28.7,21.0,29.77,North,353,0.0,0.0,74,0.00,,,0.00,TxWx,2013-02-12 22:31:00,
2013-02-12 16:36:00,28.7,21.0,29.77,NW,314,0.0,0.0,75,0.00,,,0.00,TxWx,2013-02-12 22:36:00,
2013-02-12 16:41:00,28.7,21.0,29.77,North,352,0.0,0.0,74,0.00,,,0.00,TxWx,2013-02-12 22:41:00,
2013-02-12 16:46:00,28.6,21.0,29.76,North,352,0.0,0.0,74,0.00,,,0.00,TxWx,2013-02-12 22:46:00,
2013-02-12 16:52:00,28.6,21.0,29.76,North,353,0.0,0.0,74,0.00,,,0.00,TxWx,2013-02-12 22:52:00,
2013-02-12 16:57:00,28.4,20.0,29.76,North,352,0.0,0.0,74,0.00,,,0.00,TxWx,2013-02-12 22:57:00,
2013-02-12 17:02:00,28.6,21.0,29.76,North,350,0.0,0.0,75,0.00,,,0.00,TxWx,2013-02-12 23:02:00,
2013-02-12 17:08:00,28.5,20.0,29.76,North,352,0.0,0.0,75,0.00,,,0.00,TxWx,2013-02-12 23:08:00,
2013-02-12 17:13:00,28.5,20.0,29.76,North,351,0.0,0.0,76,0.00,,,0.00,TxWx,2013-02-12 23:13:00,
2013-02-12 17:18:00,28.2,20.0,29.75,NW,314,0.0,0.0,75,0.00,,,0.00,TxWx,2013-02-12 23:18:00,
2013-02-12 17:23:00,28.0,20.0,29.75,North,350,0.0,0.0,75,0.00,,,0.00,TxWx,2013-02-12 23:23:00,
2013-02-12 17:28:00,27.8,20.0,29.76,North,352,0.0,0.0,75,0.00,,,0.00,TxWx,2013-02-12 23:28:00,
2013-02-12 17:33:00,27.9,20.0,29.76,North,350,0.0,0.0,76,0.00,,,0.00,TxWx,2013-02-12 23:33:00,
2013-02-12 17:39:00,28.0,20.0,29.76,North,4,0.0,0.0,75,0.00,,,0.00,TxWx,2013-02-12 23:39:00,
2013-02-12 17:44:00,27.8,20.0,29.76,NW,314,0.0,0.0,75,0.00,,,0.00,TxWx,2013-02-12 23:44:00,
2013-02-12 17:49:00,27.6,20.0,29.76,NW,316,0.0,0.0,75,0.00,,,0.00,TxWx,2013-02-12 23:49:00,
2013-02-12 17:54:00,27.4,19.0,29.76,NW,316,0.0,0.0,75,0.00,,,0.00,TxWx,2013-02-12 23:54:00,
2013-02-12 18:00:00,27.5,20.0,29.76,North,351,0.0,0.0,76,0.00,,,0.00,TxWx,2013-02-13 00:00:00,
2013-02-12 18:05:00,27.4,19.0,29.76,North,352,0.0,0.0,75,0.00,,,0.00,TxWx,2013-02-13 00:05:00,
2013-02-12 18:10:00,27.4,19.0,29.76,North,352,0.0,0.0,75,0.00,,,0.00,TxWx,2013-02-13 00:10:00,
2013-02-12 18:15:00,27.4,19.0,29.76,North,351,0.0,0.0,75,0.00,,,0.00,TxWx,2013-02-13 00:15:00,
2013-02-12 18:20:00,27.5,19.0,29.76,NW,313,0.0,0.0,75,0.00,,,0.00,TxWx,2013-02-13 00:20:00,
2013-02-12 18:25:00,27.4,19.0,29.76,North,352,0.0,0.0,76,0.00,,,0.00,TxWx,2013-02-13 00:25:00,
2013-02-12 18:30:00,27.4,19.0,29.76,North,351,0.0,0.0,76,0.00,,,0.00,TxWx,2013-02-13 00:30:00,
2013-02-12 18:35:00,27.4,19.0,29.76,North,352,0.0,0.0,76,0.00,,,0.00,TxWx,2013-02-13 00:35:00,
2013-02-12 18:41:00,27.4,19.0,29.76,NW,316,0.0,0.0,76,0.00,,,0.00,TxWx,2013-02-13 00:41:00,
2013-02-12 18:46:00,27.4,19.0,29.76,North,352,0.0,0.0,76,0.00,,,0.00,TxWx,2013-02-13 00:46:00,
2013-02-12 18:51:00,27.2,19.0,29.75,North,353,0.0,0.0,76,0.00,,,0.00,TxWx,2013-02-13 00:51:00,
2013-02-12 18:56:00,27.2,19.0,29.75,North,352,0.0,0.0,76,0.00,,,0.00,TxWx,2013-02-13 00:56:00,
2013-02-12 19:02:00,27.4,19.0,29.75,North,352,0.0,0.0,76,0.00,,,0.00,TxWx,2013-02-13 01:02:00,
2013-02-12 19:07:00,27.4,19.0,29.75,North,353,0.0,0.0,76,0.00,,,0.00,TxWx,2013-02-13 01:07:00,
2013-02-12 19:12:00,27.3,19.0,29.75,North,351,0.0,0.0,76,0.00,,,0.00,TxWx,2013-02-13 01:12:00,
2013-02-12 19:17:00,27.2,19.0,29.75,NW,313,0.0,0.0,76,0.00,,,0.00,TxWx,2013-02-13 01:17:00,
2013-02-12 19:22:00,27.2,19.0,29.75,NW,314,0.0,0.0,76,0.00,,,0.00,TxWx,2013-02-13 01:22:00,
2013-02-12 19:27:00,27.2,19.0,29.75,NW,313,0.0,0.0,76,0.00,,,0.00,TxWx,2013-02-13 01:27:00,
2013-02-12 19:32:00,27.1,19.0,29.75,North,354,0.0,0.0,76,0.00,,,0.00,TxWx,2013-02-13 01:32:00,
2013-02-12 19:38:00,26.9,19.0,29.75,NW,315,0.0,0.0,76,0.00,,,0.00,TxWx,2013-02-13 01:38:00,
2013-02-12 19:43:00,26.9,20.0,29.74,North,352,0.0,0.0,77,0.00,,,0.00,TxWx,2013-02-13 01:43:00,
2013-02-12 19:48:00,26.8,20.0,29.74,NW,317,0.0,0.0,77,0.00,,,0.00,TxWx,2013-02-13 01:48:00,
2013-02-12 19:53:00,26.8,20.0,29.74,NW,314,0.0,0.0,77,0.00,,,0.00,TxWx,2013-02-13 01:53:00,
2013-02-12 19:59:00,26.5,20.0,29.74,NW,319,0.0,0.0,77,0.00,,,0.00,TxWx,2013-02-13 01:59:00,
2013-02-12 20:04:00,26.4,19.0,29.74,NW,316,0.0,0.0,77,0.00,,,0.00,TxWx,2013-02-13 02:04:00,
2013-02-12 20:09:00,26.3,19.0,29.74,NW,321,0.0,0.0,77,0.00,,,0.00,TxWx,2013-02-13 02:09:00,
2013-02-12 20:14:00,26.2,19.0,29.73,NW,315,0.0,0.0,78,0.00,,,0.00,TxWx,2013-02-13 02:14:00,
2013-02-12 20:19:00,26.1,19.0,29.73,NW,313,0.0,0.0,78,0.00,,,0.00,TxWx,2013-02-13 02:19:00,
2013-02-12 20:25:00,26.1,19.0,29.73,North,353,0.0,0.0,78,0.00,,,0.00,TxWx,2013-02-13 02:25:00,
2013-02-12 20:30:00,26.1,19.0,29.73,NW,314,0.0,0.0,78,0.00,,,0.00,TxWx,2013-02-13 02:30:00,
2013-02-12 20:35:00,25.9,19.0,29.73,NW,315,0.0,0.0,78,0.00,,,0.00,TxWx,2013-02-13 02:35:00,
2013-02-12 20:40:00,25.8,19.0,29.72,NW,315,0.0,0.0,79,0.00,,,0.00,TxWx,2013-02-13 02:40:00,
2013-02-12 20:45:00,25.6,19.0,29.72,North,351,0.0,0.0,79,0.00,,,0.00,TxWx,2013-02-13 02:45:00,
2013-02-12 20:51:00,25.6,19.0,29.72,North,350,0.0,0.0,79,0.00,,,0.00,TxWx,2013-02-13 02:51:00,
2013-02-12 20:56:00,25.5,19.0,29.72,North,350,0.0,0.0,79,0.00,,,0.00,TxWx,2013-02-13 02:56:00,
2013-02-12 21:01:00,25.4,19.0,29.72,North,350,0.0,0.0,80,0.00,,,0.00,TxWx,2013-02-13 03:01:00,
2013-02-12 21:06:00,25.3,19.0,29.72,North,350,0.0,0.0,80,0.00,,,0.00,TxWx,2013-02-13 03:06:00,
2013-02-12 21:11:00,25.3,19.0,29.72,NNW,345,0.0,0.0,80,0.00,,,0.00,TxWx,2013-02-13 03:11:00,
2013-02-12 21:17:00,25.1,19.0,29.71,NNW,343,0.0,0.0,80,0.00,,,0.00,TxWx,2013-02-13 03:17:00,
2013-02-12 21:22:00,25.0,19.0,29.72,NNW,344,0.0,0.0,81,0.00,,,0.00,TxWx,2013-02-13 03:22:00,
2013-02-12 21:27:00,24.8,19.0,29.72,NNW,344,0.0,0.0,81,0.00,,,0.00,TxWx,2013-02-13 03:27:00,
2013-02-12 21:32:00,24.5,19.0,29.71,NNW,344,0.0,0.0,81,0.00,,,0.00,TxWx,2013-02-13 03:32:00,
2013-02-12 21:37:00,24.1,18.0,29.71,NNW,344,0.0,0.0,81,0.00,,,0.00,TxWx,2013-02-13 03:37:00,
2013-02-12 21:43:00,23.7,18.0,29.71,NNW,344,0.0,0.0,82,0.00,,,0.00,TxWx,2013-02-13 03:43:00,
2013-02-12 21:48:00,23.6,18.0,29.72,NNW,344,0.0,0.0,83,0.00,,,0.00,TxWx,2013-02-13 03:48:00,
2013-02-12 21:53:00,23.4,18.0,29.71,NNW,344,0.0,0.0,83,0.00,,,0.00,TxWx,2013-02-13 03:53:00,
2013-02-12 21:59:00,23.5,19.0,29.72,NW,320,0.0,0.0,85,0.00,,,0.00,TxWx,2013-02-13 03:59:00,
2013-02-12 22:04:00,23.7,19.0,29.72,NW,321,0.0,0.0,85,0.00,,,0.00,TxWx,2013-02-13 04:04:00,
2013-02-12 22:09:00,23.6,19.0,29.72,NW,320,0.0,0.0,85,0.00,,,0.00,TxWx,2013-02-13 04:09:00,
2013-02-12 22:14:00,23.7,19.0,29.72,NNW,348,0.0,0.0,86,0.00,,,0.00,TxWx,2013-02-13 04:14:00,
2013-02-12 22:19:00,23.4,18.0,29.72,NNW,348,0.0,0.0,85,0.00,,,0.00,TxWx,2013-02-13 04:19:00,
2013-02-12 22:24:00,23.3,18.0,29.72,NNW,348,0.0,0.0,85,0.00,,,0.00,TxWx,2013-02-13 04:24:00,
2013-02-12 22:30:00,23.2,18.0,29.72,NNW,348,0.0,0.0,86,0.00,,,0.00,TxWx,2013-02-13 04:30:00,
2013-02-12 22:35:00,23.1,18.0,29.72,NNW,339,0.0,0.0,86,0.00,,,0.00,TxWx,2013-02-13 04:35:00,
2013-02-12 22:40:00,23.0,18.0,29.72,NNW,342,0.0,0.0,86,0.00,,,0.00,TxWx,2013-02-13 04:40:00,
2013-02-12 22:45:00,22.9,19.0,29.72,NNW,342,0.0,0.0,87,0.00,,,0.00,TxWx,2013-02-13 04:45:00,
2013-02-12 22:50:00,22.7,19.0,29.71,NNW,340,0.0,0.0,87,0.00,,,0.00,TxWx,2013-02-13 04:50:00,
2013-02-12 22:56:00,22.5,18.0,29.72,NNW,340,0.0,0.0,87,0.00,,,0.00,TxWx,2013-02-13 04:56:00,
2013-02-12 23:00:00,22.3,18.0,29.72,NNW,340,0.0,0.0,87,0.00,,,0.00,TxWx,2013-02-13 05:00:00,
2013-02-12 23:01:00,22.3,18.0,29.72,NNW,340,0.0,0.0,87,0.00,,,0.00,TxWx,2013-02-13 05:01:00,
2013-02-12 23:06:00,22.3,18.0,29.72,North,351,0.0,0.0,88,0.00,,,0.00,TxWx,2013-02-13 05:06:00,
2013-02-12 23:11:00,22.4,18.0,29.72,North,352,0.0,0.0,88,0.00,,,0.00,TxWx,2013-02-13 05:11:00,
2013-02-12 23:14:00,22.8,19.0,29.72,NNW,346,0.0,0.0,89,0.00,,,0.00,TxWx,2013-02-13 05:14:00,
2013-02-12 23:19:00,22.6,19.0,29.72,NNW,346,0.0,0.0,88,0.00,,,0.00,TxWx,2013-02-13 05:19:00,
2013-02-12 23:24:00,22.4,18.0,29.72,NNW,346,0.0,0.0,88,0.00,,,0.00,TxWx,2013-02-13 05:24:00,
2013-02-12 23:30:00,22.4,18.0,29.71,NNW,346,0.0,0.0,89,0.00,,,0.00,TxWx,2013-02-13 05:30:00,
2013-02-12 23:35:00,22.1,18.0,29.71,NNW,346,0.0,0.0,89,0.00,,,0.00,TxWx,2013-02-13 05:35:00,
2013-02-12 23:40:00,21.9,18.0,29.71,NNW,346,0.0,0.0,89,0.00,,,0.00,TxWx,2013-02-13 05:40:00,
2013-02-12 23:45:00,21.7,18.0,29.71,NNW,346,0.0,0.0,89,0.00,,,0.00,TxWx,2013-02-13 05:45:00,
2013-02-12 23:50:00,21.6,18.0,29.71,NNW,346,0.0,0.0,89,0.00,,,0.00,TxWx,2013-02-13 05:50:00,
2013-02-12 23:56:00,21.6,18.0,29.71,NNW,346,0.0,0.0,89,0.00,,,0.00,TxWx,2013-02-13 05:56:00,